Weather History for Marathon, FL

Change the Weather History Date:

Thursday, November 21, 2013

  Actual Average Record
Temperature  
Mean Temperature 81 °F 75 °F  
Max Temperature 85 °F 80 °F 85 °F (2011)
Min Temperature 77 °F 70 °F 55 °F (2006)
Degree Days  
Heating Degree Days 0 0  
Month to date heating degree days 0 0  
Since 1 July heating degree days 0 0  
Cooling Degree Days 16 10  
Month to date cooling degree days 305 238  
Year to date cooling degree days 5166 4677  
Growing Degree Days 31 (Base 50)    
Moisture  
Dew Point 69 °F    
Average Humidity 70    
Maximum Humidity 79    
Minimum Humidity 61    
Precipitation  
Precipitation 0.00 in 0.06 in 0.61 in (2014)
Month to date precipitation 2.79 2.15  
Year to date precipitation 46.30 43.48  
Snow  
Snow 0.00 in - - ()
Month to date snowfall 0.0  
Since 1 July snowfall 0.0  
Since 1 September snowfall 0.0  
Snow Depth 0.00 in    
Sea Level Pressure  
Sea Level Pressure 30.08 in    
Wind  
Wind Speed 7 mph (East)    
Max Wind Speed 13 mph    
Max Gust Speed 17 mph    
Visibility 10 miles    
Events      
T = Trace of Precipitation, MM = Missing Value Source: NWS Daily Summary

Daily Weather History Graph

Daily Weather History Graph

Search for Another Location

Airport:

Trip Planner

Search our weather history database for the weather conditions in past years. The results will help you decide how hot, cold, wet, or windy it might be!

Date:

Astronomy

Nov. 21, 2013 Rise Set
Actual Time 6:44 AM EST 5:35 PM EST
Civil Twilight 6:20 AM EST 5:59 PM EST
Nautical Twilight 5:52 AM EST 6:27 PM EST
Astronomical Twilight 5:25 AM EST 6:54 PM EST
Moon 9:07 PM EST (11/21) 9:52 AM EST (11/21)
Length of Visible Light 11h 39m
Length of Day
10h 50m
Waning Gibbous, 85% of the Moon is Illuminated
Nov 21
Waning Gibbous
Nov 25
Last Quarter
Dec 2
New
Dec 9
First Quarter
Dec 17
Full

Hourly Weather History & Observations

Time (EST) Temp. Heat Index Dew Point Humidity Pressure Visibility Wind Dir Wind Speed Gust Speed Precip Events Conditions
12:53 AM 78.1 °F - 68.0 °F 71% 30.04 in 10.0 mi Variable 3.5 mph - N/A   Clear
1:53 AM 79.0 °F - 68.0 °F 69% 30.04 in 10.0 mi East 4.6 mph - N/A   Scattered Clouds
2:53 AM 79.0 °F - 69.1 °F 72% 30.04 in 10.0 mi East 5.8 mph - N/A   Partly Cloudy
3:53 AM 79.0 °F - 69.1 °F 72% 30.04 in 10.0 mi ESE 4.6 mph - N/A   Partly Cloudy
4:53 AM 79.0 °F - 70.0 °F 74% 30.04 in 10.0 mi ESE 6.9 mph - N/A   Mostly Cloudy
5:53 AM 78.1 °F - 70.0 °F 76% 30.06 in 10.0 mi East 5.8 mph - N/A   Partly Cloudy
6:20 AM 79.0 °F - 70.0 °F 74% 30.07 in 10.0 mi East 5.8 mph - N/A   Mostly Cloudy
6:30 AM 78.1 °F - 70.0 °F 76% 30.07 in 10.0 mi East 4.6 mph - N/A   Scattered Clouds
6:53 AM 78.1 °F - 70.0 °F 76% 30.07 in 10.0 mi East 3.5 mph - N/A   Partly Cloudy
7:53 AM 79.0 °F - 71.1 °F 77% 30.09 in 10.0 mi ENE 6.9 mph - N/A   Partly Cloudy
8:53 AM 80.1 °F 83.2 °F 70.0 °F 71% 30.11 in 10.0 mi NE 9.2 mph - N/A   Clear
9:53 AM 82.9 °F 87.0 °F 70.0 °F 65% 30.11 in 10.0 mi ESE 5.8 mph - N/A   Clear
10:53 AM 84.0 °F 87.8 °F 69.1 °F 61% 30.11 in 10.0 mi East 5.8 mph - N/A   Clear
11:53 AM 84.0 °F 87.8 °F 69.1 °F 61% 30.09 in 10.0 mi Variable 6.9 mph - N/A   Clear
12:53 PM 84.9 °F 88.8 °F 69.1 °F 59% 30.08 in 10.0 mi Variable 6.9 mph - N/A   Clear
1:53 PM 82.9 °F 86.5 °F 69.1 °F 63% 30.06 in 10.0 mi East 10.4 mph - N/A   Clear
2:53 PM 82.0 °F 85.5 °F 69.1 °F 65% 30.06 in 10.0 mi East 10.4 mph - N/A   Clear
3:53 PM 82.0 °F 85.9 °F 70.0 °F 67% 30.06 in 10.0 mi ENE 9.2 mph - N/A   Clear
4:53 PM 80.1 °F 82.9 °F 69.1 °F 69% 30.06 in 10.0 mi East 9.2 mph - N/A   Clear
5:53 PM 79.0 °F - 68.0 °F 69% 30.07 in 10.0 mi East 6.9 mph - N/A   Clear
6:53 PM 80.1 °F 82.3 °F 66.9 °F 64% 30.09 in 10.0 mi ENE 6.9 mph - N/A   Clear
7:53 PM 79.0 °F - 68.0 °F 69% 30.10 in 10.0 mi East 4.6 mph - N/A   Clear
8:53 PM 79.0 °F - 70.0 °F 74% 30.11 in 10.0 mi ENE 5.8 mph - N/A   Clear
9:53 PM 79.0 °F - 70.0 °F 74% 30.11 in 10.0 mi NE 9.2 mph - N/A   Partly Cloudy
10:53 PM 79.0 °F - 71.1 °F 77% 30.11 in 10.0 mi NE 9.2 mph - N/A   Clear
11:53 PM 78.1 °F - 72.0 °F 81% 30.09 in 10.0 mi NE 6.9 mph - N/A   Clear